Location: Pallagorio
(39.3000°N, 16.9000°E)
Time: 21:40:41
(UTC+00:00)

Cosmos 2278 Rocket - Pass Details

Date: 24 January 2021
Orbit: 840 x 847 km, 71.0° (Epoch: 03 March)

Event Time Altitude Azimuth Distance (km) Brightness Sun altitude
Rises 17:17:40 0° 180° (S) 3,383 5.5 -14.4°
Reaches altitude 10° 17:20:14 10° 173° (S) 2,454 4.7 -14.9°
Maximum altitude 17:25:26 40° 105° (ESE) 1,230 2.6 -15.8°
Enters shadow 17:28:36 22° 50° (NE) 1,787 3.4 -16.4°
